TimeMDT,TemperatureF,Dew PointF,Humidity,Sea Level PressureIn,VisibilityMPH,Wind Direction,Wind SpeedMPH,Gust SpeedMPH,PrecipitationIn,Events,Conditions,WindDirDegrees,DateUTC
6:29 AM,42.8,37.4,81,30.56,10.0,SSW,19.6,-,N/A,,Clear,210,2013-09-09 12:29:00
6:49 AM,42.8,39.2,87,30.56,10.0,SSW,16.1,-,N/A,,Scattered Clouds,210,2013-09-09 12:49:00
7:09 AM,42.8,39.2,87,30.57,10.0,SSW,16.1,-,N/A,,Scattered Clouds,200,2013-09-09 13:09:00
7:29 AM,42.8,41.0,93,30.57,10.0,SSW,18.4,-,N/A,,Clear,200,2013-09-09 13:29:00
7:49 AM,44.6,41.0,87,30.58,10.0,SSW,10.4,-,N/A,,Scattered Clouds,200,2013-09-09 13:49:00
8:09 AM,44.6,41.0,87,30.58,10.0,SSW,13.8,-,N/A,,Scattered Clouds,210,2013-09-09 14:09:00
8:29 AM,44.6,41.0,87,30.58,10.0,SSW,6.9,-,N/A,,Mostly Cloudy,210,2013-09-09 14:29:00
8:49 AM,44.6,41.0,87,30.58,10.0,SSW,10.4,-,N/A,,Mostly Cloudy,200,2013-09-09 14:49:00
9:09 AM,46.4,41.0,81,30.59,10.0,SW,11.5,-,N/A,,Mostly Cloudy,220,2013-09-09 15:09:00
9:29 AM,46.4,41.0,81,30.59,10.0,SSW,12.7,-,N/A,,Overcast,210,2013-09-09 15:29:00
9:49 AM,48.2,41.0,76,30.60,10.0,SW,10.4,-,N/A,,Overcast,220,2013-09-09 15:49:00
10:09 AM,50.0,41.0,71,30.60,10.0,WSW,12.7,-,N/A,,Overcast,240,2013-09-09 16:09:00
10:29 AM,50.0,41.0,71,30.60,10.0,SW,11.5,-,N/A,,Overcast,220,2013-09-09 16:29:00
10:49 AM,50.0,39.2,66,30.60,10.0,SW,16.1,-,N/A,,Overcast,220,2013-09-09 16:49:00
11:09 AM,50.0,41.0,71,30.59,10.0,SW,13.8,-,N/A,,Overcast,220,2013-09-09 17:09:00
11:29 AM,51.8,39.2,62,30.59,10.0,SSW,15.0,-,N/A,,Overcast,210,2013-09-09 17:29:00
11:49 AM,53.6,37.4,54,30.59,10.0,SSW,16.1,20.7,N/A,,Overcast,200,2013-09-09 17:49:00
12:09 PM,51.8,37.4,58,30.58,10.0,SSW,15.0,-,N/A,Thunderstorm,Overcast,210,2013-09-09 18:09:00
12:29 PM,53.6,37.4,54,30.58,10.0,SSW,11.5,-,N/A,,Overcast,200,2013-09-09 18:29:00
12:49 PM,53.6,37.4,54,30.58,10.0,SSW,15.0,18.4,N/A,,Overcast,200,2013-09-09 18:49:00
1:09 PM,57.2,35.6,44,30.57,10.0,SW,11.5,20.7,N/A,,Mostly Cloudy,220,2013-09-09 19:09:00
1:29 PM,57.2,35.6,44,30.56,10.0,SSW,6.9,-,N/A,,Scattered Clouds,200,2013-09-09 19:29:00
1:48 PM,55.4,37.4,51,30.56,10.0,SSE,4.6,-,N/A,Thunderstorm,Mostly Cloudy,150,2013-09-09 19:48:00
2:09 PM,53.6,35.6,51,30.55,10.0,SSW,18.4,23.0,N/A,Rain,Light Rain,210,2013-09-09 20:09:00
2:29 PM,53.6,35.6,51,30.55,10.0,SSW,18.4,24.2,N/A,,Overcast,200,2013-09-09 20:29:00
2:49 PM,53.6,33.8,47,30.55,10.0,SSW,25.3,34.5,N/A,Rain,Light Rain,200,2013-09-09 20:49:00
3:09 PM,53.6,39.2,58,30.53,10.0,South,19.6,27.6,N/A,Rain,Light Rain,170,2013-09-09 21:09:00
3:29 PM,57.2,33.8,41,30.53,10.0,SSW,8.1,-,N/A,,Scattered Clouds,210,2013-09-09 21:29:00
3:49 PM,57.2,32.0,38,30.53,10.0,SSW,13.8,-,N/A,Thunderstorm,Scattered Clouds,200,2013-09-09 21:49:00
4:09 PM,55.4,35.6,47,30.53,10.0,WSW,18.4,-,N/A,Thunderstorm,Scattered Clouds,250,2013-09-09 22:09:00
4:29 PM,50.0,42.8,76,30.53,10.0,West,20.7,-,N/A,,Scattered Clouds,260,2013-09-09 22:29:00
4:49 PM,48.2,42.8,82,30.53,10.0,West,18.4,-,N/A,,Scattered Clouds,270,2013-09-09 22:49:00
5:09 PM,48.2,42.8,82,30.53,10.0,West,23.0,-,N/A,,Mostly Cloudy,260,2013-09-09 23:09:00
5:29 PM,46.4,42.8,87,30.53,10.0,West,13.8,21.9,N/A,,Overcast,270,2013-09-09 23:29:00
5:49 PM,50.0,42.8,76,30.53,10.0,WSW,11.5,-,N/A,,Scattered Clouds,250,2013-09-09 23:49:00
6:09 PM,48.2,42.8,82,30.53,10.0,SW,11.5,-,N/A,,Scattered Clouds,230,2013-09-10 00:09:00
6:29 PM,48.2,42.8,82,30.53,10.0,West,9.2,-,N/A,,Overcast,260,2013-09-10 00:29:00
6:49 PM,48.2,42.8,82,30.53,10.0,WSW,10.4,-,N/A,,Overcast,250,2013-09-10 00:49:00
7:09 PM,48.2,42.8,82,30.53,10.0,West,12.7,-,N/A,Thunderstorm,Overcast,260,2013-09-10 01:09:00
7:29 PM,48.2,41.0,76,30.54,10.0,West,12.7,-,N/A,,Overcast,270,2013-09-10 01:29:00
7:49 PM,46.4,41.0,81,30.53,10.0,West,12.7,-,N/A,,Overcast,270,2013-09-10 01:49:00
8:09 PM,46.4,42.8,87,30.54,10.0,WSW,8.1,-,N/A,,Overcast,250,2013-09-10 02:09:00
8:29 PM,44.6,42.8,93,30.56,1.0,SW,23.0,-,N/A,,Overcast,230,2013-09-10 02:29:00
8:49 PM,44.6,42.8,93,30.56,1.0,WSW,24.2,-,N/A,,Overcast,240,2013-09-10 02:49:00
9:09 PM,44.6,42.8,93,30.56,0.5,West,16.1,-,N/A,,Light Drizzle,270,2013-09-10 03:09:00
9:29 PM,44.6,41.0,87,30.56,10.0,West,6.9,-,N/A,,Overcast,260,2013-09-10 03:29:00
9:49 PM,44.6,41.0,87,30.56,10.0,SW,8.1,-,N/A,,Overcast,230,2013-09-10 03:49:00
10:09 PM,48.2,37.4,66,30.56,10.0,South,8.1,-,N/A,,Overcast,180,2013-09-10 04:09:00
10:29 PM,48.2,35.6,62,30.56,10.0,SSE,10.4,19.6,N/A,,Mostly Cloudy,150,2013-09-10 04:29:00
10:49 PM,50.0,35.6,58,30.56,10.0,South,10.4,-,N/A,,Scattered Clouds,190,2013-09-10 04:49:00
11:09 PM,46.4,39.2,76,30.56,10.0,South,10.4,-,N/A,,Mostly Cloudy,180,2013-09-10 05:09:00
11:29 PM,46.4,37.4,71,30.57,10.0,South,11.5,-,N/A,Thunderstorm,Overcast,170,2013-09-10 05:29:00
11:49 PM,44.6,41.0,87,30.58,10.0,SSW,4.6,-,N/A,Thunderstorm,Overcast,210,2013-09-10 05:49:00